This is the latest recevied weather packets stored in our database for station/object KC8YYF. If no packets are shown the sender has not sent any weather packets the latest 1 day(s).
| Time | Temp. | Humidity | Pressure | Rain* | Wind** | Luminosity | Snow |
|---|---|---|---|---|---|---|---|
| 1778111084 | 11.67° C | 62% | 1013.8 hPa | 0 mm | - | 2 W/m² | - |
| 1778109566 | 12.22° C | 65% | 1014 hPa | 0 mm | - | 10 W/m² | - |
| 1778109264 | 12.22° C | 57% | 1013.7 hPa | 0 mm | - | 10 W/m² | - |
| 1778108961 | 12.78° C | 64% | 1013.9 hPa | 0 mm | - | 10 W/m² | - |
| 1778108354 | 12.22° C | 59% | 1013.8 hPa | 0 mm | - | 11 W/m² | - |
| 1778107748 | 12.78° C | 61% | 1013.7 hPa | 0 mm | - | 17 W/m² | - |
| 1778107446 | 12.78° C | 58% | 1013.6 hPa | 0 mm | - | 22 W/m² | - |
| 1778106837 | 12.78° C | 58% | 1013.8 hPa | 0 mm | - | 21 W/m² | - |
| 1778106230 | 12.78° C | 56% | 1013.6 hPa | 0 mm | - | 29 W/m² | - |
| 1778105928 | 12.78° C | 58% | 1013.2 hPa | 0 mm | - | 34 W/m² | - |
| 1778105018 | 12.78° C | 59% | 1012.9 hPa | 0 mm | - | 44 W/m² | - |
| 1778104715 | 12.78° C | 57% | 1012.9 hPa | 0 mm | - | 46 W/m² | - |
| 1778104411 | 12.78° C | 59% | 1012.9 hPa | 0 mm | - | 75 W/m² | - |
| 1778104107 | 12.78° C | 57% | 1012.8 hPa | 0 mm | - | 49 W/m² | - |
| 1778103804 | 12.78° C | 57% | 1013.2 hPa | 0 mm | - | 44 W/m² | - |
| 1778103199 | 12.78° C | 56% | 1012.7 hPa | 0 mm | - | 53 W/m² | - |
| 1778102592 | 13.33° C | 57% | 1012.7 hPa | 0 mm | - | 66 W/m² | - |
| 1778101075 | 13.89° C | 60% | 1012.5 hPa | 0 mm | - | 67 W/m² | - |
| 1778100770 | 13.89° C | 60% | 1012.2 hPa | 0 mm | - | 89 W/m² | - |
| 1778100165 | 13.33° C | 60% | 1012.3 hPa | 0 mm | - | 87 W/m² | - |
| 1778098347 | 14.44° C | 55% | 1012.3 hPa | 0 mm | - | 108 W/m² | - |
| 1778098044 | 13.89° C | 57% | 1012.3 hPa | 0 mm | - | 135 W/m² | - |
| 1778097133 | 14.44° C | 56% | 1012.4 hPa | 0 mm | - | 103 W/m² | - |
| 1778096825 | 14.44° C | 60% | 1012.4 hPa | 0 mm | - | 114 W/m² | - |
| 1778095006 | 15° C | 56% | 1012.4 hPa | 0 mm | - | 246 W/m² | - |
* Rain latest hour (hover to see other rain measurements)
** Current wind speed in m/s (hover to see current wind gust speed)